Fairbanks Eiels, AK

7:45 PM AKDT on July 25, 2017 (GMT -0800)
Eielson Air Force Base

Weather History for PAEI - November, 2012

Change the Weather History Date:

Friday, November 2, 2012

  Actual Average Record
Temperature  
Mean Temperature -6 °F -  
Max Temperature 9 °F 17 °F 46 °F (1951)
Min Temperature -20 °F 1 °F -31 °F (1975)
Degree Days  
Heating Degree Days 72    
Moisture  
Dew Point -16 °F    
Average Humidity 77    
Maximum Humidity 84    
Minimum Humidity 69    
Precipitation  
Precipitation 0.00 in - - ()
Sea Level Pressure  
Sea Level Pressure 29.86 in    
Wind  
Wind Speed 0 mph (SSE)    
Max Wind Speed 4 mph    
Max Gust Speed -    
Visibility 9 miles    
Events      
Averages and records for this station are not official NWS values.
T = Trace of Precipitation, MM = Missing Value Source: NWS Daily Summary

Daily Weather History Graph

Daily Weather History Graph

Search for Another Location

Airport or City:

Trip Planner

Search our weather history database for the weather conditions in past years. The results will help you decide how hot, cold, wet, or windy it might be!

Date:

Astronomy

Nov. 02, 2012 Rise Set
Actual Time 9:40 AM AKDT 5:22 PM AKDT
Civil Twilight 8:45 AM AKDT 6:17 PM AKDT
Nautical Twilight 7:46 AM AKDT 7:16 PM AKDT
Astronomical Twilight 6:50 AM AKDT 8:12 PM AKDT
Moon 7:18 PM AKDT (11/2) 2:08 PM AKDT (11/2)
Length of Visible Light 9h 32m
Length of Day
7h 41m
Waning Gibbous, 86% of the Moon is Illuminated
Nov 2
Waning Gibbous
Nov 6
Last Quarter
Nov 13
New
Nov 20
First Quarter
Nov 28
Full

Hourly Weather History & Observations

Time (AKDT) Temp. Windchill Dew Point Humidity Pressure Visibility Wind Dir Wind Speed Gust Speed Precip Events Conditions
12:55 AM -15.3 °F - -20.9 °F 76% 30.10 in 10.0 mi Calm Calm - N/A   Clear
1:55 AM -13.9 °F - -19.7 °F 75% 30.09 in 10.0 mi Calm Calm - N/A   Clear
2:55 AM -17.0 °F - -22.7 °F 75% 30.06 in 10.0 mi Calm Calm - N/A   Clear
3:55 AM -17.7 °F - -23.6 °F 74% 30.03 in 10.0 mi Calm Calm - N/A   Clear
4:17 AM -18.4 °F - -23.8 °F 76% 30.02 in 10.0 mi Calm Calm - N/A   Partly Cloudy
4:55 AM -17.0 °F - -22.9 °F 74% 30.01 in 10.0 mi Calm Calm - N/A   Clear
5:55 AM -19.1 °F - -25.2 °F 73% 29.99 in 10.0 mi Calm Calm - N/A   Clear
6:55 AM -19.5 °F - -25.6 °F 73% 29.96 in 10.0 mi Calm Calm - N/A   Partly Cloudy
7:21 AM -18.4 °F - -23.8 °F 76% 29.95 in 7.0 mi Calm Calm - N/A   Partly Cloudy
7:55 AM -19.3 °F - -25.4 °F 73% 29.94 in 10.0 mi Calm Calm - N/A   Partly Cloudy
8:38 AM -20.2 °F - -25.6 °F 76% 29.91 in 4.0 mi Calm Calm - N/A   Haze
8:41 AM -20.2 °F - -25.6 °F 76% 29.91 in 2.5 mi Calm Calm - N/A   Haze
8:46 AM -20.2 °F - -25.6 °F 76% 29.91 in 2.5 mi Calm Calm - N/A   Haze
8:47 AM -20.2 °F - -25.6 °F 76% 29.91 in 3.0 mi Calm Calm - N/A   Haze
8:55 AM -19.5 °F -30.1 °F -25.4 °F 74% 29.91 in 10.0 mi SSE 3.5 mph - N/A   Clear
9:11 AM -20.2 °F - -27.4 °F 69% 29.91 in 10.0 mi Calm Calm - N/A   Partly Cloudy
9:55 AM -19.5 °F - -25.6 °F 73% 29.88 in 10.0 mi Calm Calm - N/A   Scattered Clouds
10:55 AM -20.0 °F - -26.1 °F 73% 29.86 in 10.0 mi Calm Calm - N/A   Scattered Clouds
11:55 AM -17.0 °F - -22.7 °F 75% 29.84 in 10.0 mi Calm Calm - N/A   Mostly Cloudy
12:55 PM -9.9 °F - -15.0 °F 78% 29.81 in 10.0 mi Calm Calm - N/A   Partly Cloudy
1:55 PM -4.0 °F - -8.7 °F 80% 29.77 in 10.0 mi Calm Calm - N/A   Overcast
2:55 PM -1.3 °F - -5.8 °F 81% 29.74 in 10.0 mi Calm Calm - N/A   Overcast
3:55 PM 1.6 °F -6.0 °F -2.6 °F 83% 29.73 in 10.0 mi SSE 3.5 mph - N/A   Mostly Cloudy
4:55 PM 3.0 °F - -0.9 °F 84% 29.71 in 10.0 mi Calm Calm - N/A   Overcast
5:55 PM 3.0 °F - -0.9 °F 84% 29.70 in 10.0 mi Calm Calm - N/A   Mostly Cloudy
6:55 PM 4.3 °F - 0.1 °F 83% 29.70 in 10.0 mi Calm Calm - N/A   Overcast
7:55 PM 5.0 °F - 1.2 °F 84% 29.69 in 10.0 mi Calm Calm - N/A   Scattered Clouds
8:55 PM 6.3 °F - 2.1 °F 83% 29.68 in 10.0 mi Calm Calm - N/A   Mostly Cloudy
9:55 PM 6.6 °F - 2.5 °F 83% 29.66 in 10.0 mi Calm Calm - N/A   Partly Cloudy
10:55 PM 7.9 °F - 2.7 °F 79% 29.66 in 10.0 mi Calm Calm - N/A   Overcast
11:55 PM 9.0 °F - 4.5 °F 82% 29.65 in 10.0 mi Calm Calm - N/A   Overcast